• In Netherlands
  • List of Countries
  • For 7 days
  • Water Temperature
  • Satellite Maps
  • Weather Map
  • Weather Widgets
  • user-avatar
    Login

    Hourly Weather Santiago del Estero

    Today, 20 January, Friday

    Time Temperature Precipitation Wind Pressure Humidity
    00:00 +29°C° 0 mm 4 mps 742 mmHg 37%
    01:00 +28°C° 0 mm 4 mps 742 mmHg 39%
    02:00 +28°C° 0 mm 4 mps 742 mmHg 39%
    03:00 +27°C° 0 mm 3 mps 743 mmHg 42%
    04:00 +26°C° 0 mm 3 mps 743 mmHg 44%
    05:00 +25°C° 0 mm 2 mps 743 mmHg 47%
    06:00 +27°C° 0 mm 2 mps 743 mmHg 43%
    07:00 +29°C° 0 mm 3 mps 744 mmHg 39%
    08:00 +31°C° 0 mm 3 mps 744 mmHg 34%
    09:00 +35°C° 0 mm 3 mps 744 mmHg 30%
    10:00 +37°C° 0 mm 3 mps 744 mmHg 26%
    11:00 +39°C° 0 mm 3 mps 744 mmHg 22%
    12:00 +40°C° 0 mm 3 mps 743 mmHg 20%
    13:00 +41°C° 0 mm 2 mps 743 mmHg 18%
    14:00 +42°C° 0 mm 2 mps 742 mmHg 16%
    15:00 +43°C° 0 mm 3 mps 741 mmHg 15%
    16:00 +43°C° 0 mm 3 mps 741 mmHg 14%
    17:00 +44°C° 0 mm 3 mps 740 mmHg 13%
    18:00 +40°C° 0 mm 3 mps 740 mmHg 16%
    19:00 +37°C° 0 mm 3 mps 741 mmHg 18%
    20:00 +34°C° 0 mm 3 mps 741 mmHg 21%
    21:00 +31°C° 0 mm 3 mps 741 mmHg 24%
    22:00 +30°C° 0 mm 3 mps 742 mmHg 26%
    23:00 +29°C° 0 mm 3 mps 743 mmHg 29%

    Tomorrow, 21 January, Saturday

    Time Temperature Precipitation Wind Pressure Humidity
    00:00 +29°C° 0 mm 2 mps 742 mmHg 32%
    01:00 +28°C° 0 mm 2 mps 742 mmHg 35%
    02:00 +27°C° 0 mm 2 mps 742 mmHg 38%
    03:00 +27°C° 0 mm 2 mps 742 mmHg 41%
    04:00 +26°C° 0 mm 1 mps 742 mmHg 44%
    05:00 +25°C° 0 mm 1 mps 742 mmHg 48%
    06:00 +28°C° 0 mm 1 mps 743 mmHg 43%
    07:00 +30°C° 0 mm 2 mps 743 mmHg 39%
    08:00 +34°C° 0 mm 2 mps 744 mmHg 35%
    09:00 +36°C° 0 mm 2 mps 743 mmHg 31%
    10:00 +38°C° 0 mm 3 mps 743 mmHg 28%
    11:00 +40°C° 0 mm 3 mps 743 mmHg 24%
    12:00 +43°C° 0 mm 3 mps 743 mmHg 22%
    13:00 +44°C° 0 mm 3 mps 742 mmHg 19%
    14:00 +45°C° 0 mm 3 mps 741 mmHg 17%
    15:00 +45°C° 0 mm 4 mps 740 mmHg 16%
    16:00 +45°C° 0 mm 4 mps 740 mmHg 16%
    17:00 +45°C° 0 mm 4 mps 739 mmHg 16%
    18:00 +42°C° 0 mm 4 mps 739 mmHg 21%
    19:00 +38°C° 0 mm 4 mps 739 mmHg 25%
    20:00 +36°C° 0 mm 4 mps 739 mmHg 30%
    21:00 +35°C° 0 mm 4 mps 740 mmHg 33%
    22:00 +34°C° 0 mm 3 mps 740 mmHg 35%
    23:00 +33°C° 0 mm 3 mps 740 mmHg 38%

    Day after tomorrow, 22 January, Sunday

    Time Temperature Precipitation Wind Pressure Humidity
    00:00 +33°C° 0 mm 3 mps 740 mmHg 40%
    01:00 +31°C° 0 mm 3 mps 740 mmHg 41%
    02:00 +31°C° 0 mm 3 mps 740 mmHg 42%
    03:00 +30°C° 0 mm 3 mps 740 mmHg 43%
    04:00 +30°C° 0 mm 2 mps 740 mmHg 44%
    05:00 +30°C° 0 mm 2 mps 740 mmHg 44%
    06:00 +31°C° 0 mm 2 mps 740 mmHg 41%
    07:00 +34°C° 0 mm 2 mps 740 mmHg 38%
    08:00 +35°C° 0 mm 2 mps 741 mmHg 36%
    09:00 +37°C° 0 mm 3 mps 741 mmHg 32%
    10:00 +39°C° 0 mm 3 mps 740 mmHg 28%
    11:00 +42°C° 0 mm 4 mps 740 mmHg 24%
    12:00 +43°C° 0 mm 4 mps 740 mmHg 23%
    13:00 +43°C° 0 mm 4 mps 739 mmHg 21%
    14:00 +44°C° 0 mm 4 mps 738 mmHg 20%
    15:00 +44°C° 0 mm 4 mps 738 mmHg 20%
    16:00 +45°C° 0 mm 5 mps 737 mmHg 19%
    17:00 +45°C° 0 mm 5 mps 736 mmHg 19%
    18:00 +42°C° 0 mm 5 mps 737 mmHg 22%
    19:00 +40°C° 0 mm 4 mps 737 mmHg 24%
    20:00 +36°C° 0 mm 4 mps 738 mmHg 27%
    21:00 +36°C° 0 mm 4 mps 738 mmHg 28%
    22:00 +35°C° 0 mm 3 mps 739 mmHg 29%
    23:00 +35°C° 0 mm 3 mps 739 mmHg 30%

    23 January, Monday

    Time Temperature Precipitation Wind Pressure Humidity
    00:00 +34°C° 0 mm 3 mps 739 mmHg 31%
    01:00 +34°C° 0 mm 2 mps 739 mmHg 32%
    02:00 +34°C° 0 mm 2 mps 738 mmHg 32%
    03:00 +32°C° 0 mm 2 mps 738 mmHg 34%
    04:00 +32°C° 0 mm 2 mps 738 mmHg 36%
    05:00 +31°C° 0 mm 2 mps 738 mmHg 38%
    06:00 +32°C° 0 mm 2 mps 739 mmHg 37%
    07:00 +34°C° 0 mm 2 mps 739 mmHg 36%
    08:00 +34°C° 0 mm 1 mps 740 mmHg 35%
    09:00 +35°C° 0 mm 1 mps 740 mmHg 32%
    10:00 +38°C° 0 mm 2 mps 740 mmHg 29%
    11:00 +40°C° 0 mm 2 mps 740 mmHg 26%
    12:00 +40°C° 0 mm 2 mps 739 mmHg 24%
    13:00 +41°C° 0 mm 2 mps 739 mmHg 23%
    14:00 +42°C° 0 mm 2 mps 738 mmHg 21%
    15:00 +41°C° 0 mm 2 mps 738 mmHg 22%
    16:00 +42°C° 0 mm 3 mps 738 mmHg 23%
    17:00 +40°C° 0 mm 3 mps 737 mmHg 24%
    18:00 +38°C° 0 mm 3 mps 738 mmHg 27%
    19:00 +37°C° 0 mm 3 mps 738 mmHg 30%
    20:00 +35°C° 0 mm 3 mps 738 mmHg 34%
    21:00 +33°C° 0.2 mm 3 mps 738 mmHg 39%
    22:00 +31°C° 0.2 mm 3 mps 739 mmHg 44%
    23:00 +30°C° 0.2 mm 4 mps 739 mmHg 49%

    24 January, Tuesday

    Time Temperature Precipitation Wind Pressure Humidity
    00:00 +29°C° 0 mm 3 mps 739 mmHg 50%
    01:00 +29°C° 0 mm 3 mps 739 mmHg 50%
    02:00 +29°C° 0 mm 3 mps 738 mmHg 51%
    03:00 +28°C° 0.1 mm 2 mps 738 mmHg 54%
    04:00 +28°C° 0.1 mm 1 mps 739 mmHg 57%
    05:00 +27°C° 0.1 mm 1 mps 739 mmHg 61%
    06:00 +29°C° 0 mm 1 mps 739 mmHg 55%
    07:00 +31°C° 0 mm 1 mps 740 mmHg 49%
    08:00 +32°C° 0 mm 2 mps 741 mmHg 44%
    09:00 +35°C° 0 mm 2 mps 741 mmHg 38%
    10:00 +38°C° 0 mm 2 mps 741 mmHg 33%
    11:00 +40°C° 0 mm 2 mps 741 mmHg 27%
    12:00 +41°C° 0 mm 2 mps 740 mmHg 25%
    13:00 +42°C° 0 mm 2 mps 739 mmHg 23%
    14:00 +43°C° 0 mm 2 mps 739 mmHg 21%
    15:00 +42°C° 0 mm 1 mps 739 mmHg 22%
    16:00 +42°C° 0 mm 1 mps 738 mmHg 23%
    17:00 +41°C° 0 mm 1 mps 738 mmHg 24%
    18:00 +39°C° 0 mm 1 mps 739 mmHg 28%
    19:00 +36°C° 0 mm 1 mps 739 mmHg 32%
    20:00 +34°C° 0 mm 2 mps 740 mmHg 36%
    21:00 +32°C° 0.3 mm 2 mps 740 mmHg 40%
    22:00 +30°C° 0.3 mm 2 mps 741 mmHg 45%
    23:00 +29°C° 0.3 mm 3 mps 741 mmHg 49%

    25 January, Wednesday

    Time Temperature Precipitation Wind Pressure Humidity
    00:00 +28°C° 0.5 mm 3 mps 741 mmHg 54%
    01:00 +27°C° 0.5 mm 3 mps 742 mmHg 59%
    02:00 +27°C° 0.5 mm 3 mps 742 mmHg 64%
    03:00 +26°C° 0.1 mm 4 mps 742 mmHg 67%
    04:00 +26°C° 0.1 mm 4 mps 743 mmHg 69%
    05:00 +26°C° 0.1 mm 5 mps 743 mmHg 71%
    06:00 +26°C° 0 mm 5 mps 744 mmHg 65%
    07:00 +27°C° 0 mm 5 mps 745 mmHg 58%
    08:00 +28°C° 0 mm 6 mps 746 mmHg 51%
    09:00 +30°C° 0 mm 5 mps 746 mmHg 45%
    10:00 +32°C° 0 mm 5 mps 746 mmHg 39%
    11:00 +34°C° 0 mm 5 mps 746 mmHg 33%
    12:00 +35°C° 0 mm 5 mps 746 mmHg 31%
    13:00 +37°C° 0 mm 4 mps 745 mmHg 28%
    14:00 +38°C° 0 mm 4 mps 744 mmHg 26%
    15:00 +38°C° 0 mm 4 mps 743 mmHg 25%
    16:00 +38°C° 0 mm 4 mps 743 mmHg 25%
    17:00 +38°C° 0 mm 4 mps 742 mmHg 25%
    18:00 +36°C° 0 mm 3 mps 742 mmHg 29%
    19:00 +34°C° 0 mm 3 mps 742 mmHg 32%
    20:00 +31°C° 0 mm 2 mps 742 mmHg 36%
    21:00 +30°C° 0 mm 3 mps 743 mmHg 37%
    22:00 +29°C° 0 mm 3 mps 743 mmHg 38%
    23:00 +28°C° 0 mm 3 mps 743 mmHg 39%
    Show more